User: anonymous   Login
Location: The Saddle
(36.8333°N, 80.3417°W)
Time: 06:22:24
(UTC-05:00)
Language:

XW-2D - Orbit

View from above orbital plane
View from above orbital plane
View from above satellite
View from above satellite

Ground track
Ground track

The orbit data is extracted from the following two-line orbital elements,

1 40907U 15049J   24054.08477293  .00027738  00000-0  69564-3 0  9994
2 40907  97.4834  70.0615 0007578   2.0444 358.0832 15.39976106466931
Epoch (UTC): 23 February 2024 02:02:04
Eccentricity: 0.0007578
inclination: 97.4834°
perigee height: 441 km
apogee height: 451 km
right ascension of ascending node: 70.0615°
argument of perigee: 2.0444°
revolutions per day: 15.39976106
mean anomaly at epoch: 358.0832°
orbit number at epoch: 46693

The dashed part of the orbit path shows where the satellite is in the earth's shadow,  

DLR